www.pogodaiklimat.ru

Погода и климат >> Архив погоды >> Швейцария >> Оберёш-Коппиген


ПОГОДА в Оберёш-Коппигене

  • Прогноз погоды в Оберёш-Коппигене
  • Монитор погоды в Оберёш-Коппигене

АРХИВ ПОГОДЫ в Оберёш-Коппигене

Время (UTC), дата Ветер
(напр.,м/с)
 
Видим.   Явления Облачность Т
(С)
Тd
(С)
f
(%)
Тe
(С)
Тes
(С)
Комфортность P
(гПа)
Po
(гПа)
Тmin
(С)
Tmax
(С)
R
(мм)
R24
(мм)
S
(см)
01 10.07 СВ 6
{10}
н/о н/о +13.3 +6.6 64 +11 +11 1017.8 961.0
02 10.07 СВ 5
{9}
н/о н/о +12.3 +6.4 67 +10 +10 1018.3 961.3
03 10.07 СВ 7
{10}
н/о н/о +11.9 +5.9 67 +9 +9 1018.4 961.3
04 10.07 СВ 5
{10}
н/о н/о +11.3 +5.6 68 +9 +9 1018.7 961.5
05 10.07 СВ 4
{7}
н/о н/о +11.6 +6.4 70 +10 +10 1018.9 961.7
06 10.07 СВ 5 15 км 3/0
[]
+13.0 +6.6 65 +11 +13 1018.6 961.7 +10.8
07 10.07 СВ 5
{9}
н/о н/о +14.8 +6.8 59 +14 +14 1018.4 961.9
08 10.07 СВ 5
{8}
н/о н/о +16.5 +6.9 53 +16 +16 1018.2 962.0
09 10.07 СВ 5
{9}
н/о н/о +18.0 +8.0 52 +18 +18 1017.8 961.9
10 10.07 СВ 6
{10}
н/о н/о +19.4 +7.6 46 +20 +20 1017.4 961.8
11 10.07 СВ 6
{10}
н/о н/о +20.2 +8.4 47 +21 +21 комфорт 1017.0 961.6
12 10.07 СВ 5
{10}
15 км 1/0
[]
+21.0 +8.7 45 +22 +31 комфорт 1016.7 961.5
13 10.07 В 4
{9}
н/о н/о +22.1 +9.1 43 +23 +23 комфорт 1016.3 961.3
14 10.07 СВ 5
{10}
н/о н/о +22.6 +7.6 38 +24 +24 комфорт 1015.9 961.0
15 10.07 СВ 5
{10}
н/о н/о +23.0 +6.0 33 +23 +23 комфорт 1015.8 961.0
16 10.07 СВ 4
{7}
н/о н/о +23.2 +5.3 31 +23 +23 комфорт 1015.6 960.9
17 10.07 В 2
{6}
н/о н/о +22.8 +4.8 31 +23 +23 комфорт 1015.7 960.9
18 10.07 В 2 15 км 1/0
[]
+21.5 +5.4 35 +22 +23 комфорт 1015.9 960.8 +24.1
19 10.07 СВ 2
{3}
н/о н/о +19.7 +7.5 45 +21 +21 комфорт 1016.2 960.8
20 10.07 В 2
{2}
н/о н/о +17.7 +7.0 49 +18 +18 1017.2 961.3
21 10.07 В 1
{3}
н/о н/о +12.8 +8.7 76 +14 +14 1018.3 961.4
22 10.07 штиль 0
{2}
н/о н/о +12.6 +7.9 73 +12 +12 1018.1 961.2
23 10.07 штиль 0
{1}
н/о н/о +12.2 +8.3 77 +12 +12 1018.1 961.1
00 11.07 В 1
{3}
н/о н/о +10.6 +8.7 88 +11 +11 1018.0 960.7
01 11.07 С 1
{2}
н/о н/о +10.9 +8.6 86 +11 +11 1017.4 960.2
02 11.07 З 1
{2}
н/о н/о +10.1 +8.3 89 +11 +11 1017.2 959.8
03 11.07 штиль 0
{2}
н/о н/о +9.0 +7.9 93 +8 +8 1017.1 959.5
04 11.07 ЮВ 1
{2}
н/о н/о +8.9 +7.4 90 +9 +9 1017.0 959.4
05 11.07 штиль 0
{1}
н/о н/о +9.8 +8.6 92 +9 +9 1017.2 959.7
06 11.07 С 1 14 км дымка 6/6 1500 м
[]
+13.0 +9.9 81 +14 +15 1016.4 959.6 +8.8
07 11.07 СЗ 1
{1}
н/о н/о +14.5 +10.0 74 +16 +16 1016.0 959.6
08 11.07 штиль 0
{1}
н/о н/о +15.4 +10.7 74 +15 +15 1016.0 959.7
09 11.07 ЮВ 1
{2}
н/о н/о +16.6 +10.9 69 +18 +18 1015.6 959.6
10 11.07 З 1
{3}
н/о н/о +18.2 +10.0 59 +19 +19 1015.5 959.8
11 11.07 Ю 1
{3}
н/о н/о +19.7 +11.3 58 +23 +23 комфорт 1014.8 959.4
12 11.07 В 1
{3}
8000 м мгла 10/0
[]
+20.7 +10.6 52 +24 +34 комфорт 1014.0 958.9
13 11.07 СЗ 2
{3}
н/о н/о +21.1 +9.1 46 +22 +22 комфорт 1014.0 959.0
14 11.07 СВ 2
{4}
н/о н/о +19.8 +12.6 63 +22 +22 комфорт 1014.7 959.4
15 11.07 В 2
{4}
н/о н/о +19.5 +12.1 62 +22 +22 комфорт 1014.8 959.4
16 11.07 Ю 1
{3}
н/о н/о +20.5 +10.9 54 +24 +24 комфорт 1014.4 959.2
17 11.07 С 2
{4}
н/о н/о +19.8 +12.8 64 +22 +22 комфорт 1014.8 959.5
18 11.07 СВ 2
{4}
10 км дымка {дождь} 10/0 2000 м
[]
+18.7 +13.9 74 +20 +21 1015.2 959.6 +21.7
19 11.07 В 1
{2}
н/о н/о +17.8 +14.1 79 +19 +19 1015.5 959.7
20 11.07 штиль 0
{2}
н/о н/о +16.4 +14.3 87 +16 +16 1016.1 960.0
21 11.07 ЮВ 1
{2}
н/о н/о +15.7 +13.5 87 +17 +17 1016.1 959.9
22 11.07 Ю 1
{1}
н/о н/о +14.0 +12.6 91 +15 +15 1016.6 960.0
23 11.07 С 2
{2}
н/о н/о +12.6 +11.5 93 +12 +12 1016.6 959.7
00 12.07 З 1
{2}
н/о н/о +11.8 +10.9 94 +12 +12 1016.6 959.6
01 12.07 СЗ 1
{2}
н/о н/о +11.3 +9.9 91 +12 +12 1016.4 959.3
02 12.07 ЮЗ 1
{2}
н/о н/о +11.9 +10.0 88 +13 +13 1016.2 959.2
03 12.07 С 1
{3}
н/о н/о +11.8 +10.3 91 +12 +12 1016.1 959.1
04 12.07 З 1
{3}
н/о н/о +12.3 +10.4 88 +12 +12 1016.1 959.2
05 12.07 ЮЗ 2
{4}
н/о н/о +13.2 +10.5 84 +12 +12 1016.0 959.3
06 12.07 Ю 2
{4}
15 км 4/0 2000 м
[]
+15.9 +11.4 75 +16 +18 1015.3 959.2 +10.9
07 12.07 Ю 2
{3}
н/о н/о +16.3 +11.9 75 +17 +17 1015.5 959.4
08 12.07 Ю 3
{4}
н/о н/о +18.8 +13.1 69 +20 +20 1014.5 959.0
09 12.07 З 4
{6}
н/о н/о +18.8 +13.2 70 +20 +20 1014.7 959.2
10 12.07 З 2
{6}
н/о н/о +20.3 +14.9 71 +24 +24 комфорт 1014.3 959.1
11 12.07 З 4
{7}
н/о н/о +23.2 +14.1 57 +27 +27 душно 1013.2 958.6
12 12.07 З 4
{8}
15 км {дождь} 6/0 2000 м
[]
+24.5 +13.3 50 +27 +35 жарко 1012.4 958.1
13 12.07 З 7
{11}
н/о н/о +26.0 +11.5 40 +27 +27 жарко 1011.8 957.8
14 12.07 З 6
{10}
н/о н/о +25.9 +11.8 41 +27 +27 жарко 1011.5 957.5
15 12.07 З 7
{11}
н/о н/о +25.0 +10.7 41 +26 +26 жарко 1011.4 957.2
16 12.07 З 6
{10}
н/о н/о +24.7 +12.1 45 +26 +26 жарко 1011.4 957.2
17 12.07 З 5
{10}
н/о н/о +23.7 +11.4 46 +25 +25 комфорт 1011.7 957.3
18 12.07 З 3
{11}
15 км 8/8 1500 м
[]
+22.9 +11.8 50 +25 +26 комфорт 1012.3 957.7 +26.5
19 12.07 З 2
{7}
н/о н/о +21.7 +11.6 53 +24 +24 комфорт 1013.3 958.4
20 12.07 З 3
{6}
н/о н/о +21.8 +10.6 49 +24 +24 комфорт 1013.9 959.0
21 12.07 З 3
{7}
н/о н/о +19.9 +9.8 52 +21 +21 комфорт 1014.6 959.3
22 12.07 ЮЗ 3
{4}
н/о н/о +16.1 +10.2 68 +16 +16 1015.4 959.3
23 12.07 ЮЗ 3
{5}
н/о н/о +17.3 +10.5 64 +17 +17 1015.4 959.5
00 13.07 ЮЗ 3
{7}
н/о н/о +18.1 +10.3 60 +18 +18 1015.1 959.4
01 13.07 В 2
{8}
н/о н/о +16.4 +12.2 76 +17 +17 1016.3 960.2
02 13.07 ЮВ 2
{5}
н/о н/о +15.3 +12.6 84 +15 +15 1016.2 959.9
03 13.07 СВ 3
{8}
н/о н/о +14.8 +12.7 87 +14 +14 1016.6 960.2
04 13.07 В 2
{3}
н/о н/о +14.3 +12.4 88 +14 +14 1017.3 960.7
05 13.07 В 2
{3}
н/о н/о +15.1 +11.4 79 +15 +15 1017.5 961.1
06 13.07 В 2
{8}
18 км {дождь} 6/6 1410 м
[]
+16.6 +11.0 69 +17 +18 1017.7 961.6 +13.5
07 13.07 В 2
{4}
н/о н/о +17.9 +11.5 66 +19 +19 1017.7 961.8
08 13.07 СВ 2
{4}
н/о н/о +19.2 +10.4 57 +21 +21 комфорт 1017.5 961.9
09 13.07 В 2
{5}
н/о н/о +19.5 +10.7 57 +21 +21 комфорт 1017.3 961.8
10 13.07 СЗ 3
{5}
н/о н/о +20.4 +9.9 51 +22 +22 комфорт 1017.2 961.8
11 13.07 Ю 2
{5}
н/о н/о +23.2 +10.0 43 +25 +25 комфорт 1016.3 961.5
12 13.07 СВ 3
{6}
18 км 5/5 1110 м
[]
+22.6 +9.4 43 +24 +31 комфорт 1016.3 961.4
13 13.07 С 5
{11}
н/о н/о +22.0 +9.9 46 +24 +24 комфорт 1016.2 961.2
14 13.07 В 2
{6}
н/о н/о +22.9 +8.8 41 +24 +24 комфорт 1015.8 961.0
15 13.07 СВ 3
{11}
н/о н/о +24.3 +9.8 40 +25 +25 комфорт 1015.4 960.9
16 13.07 СВ 3
{6}
н/о н/о +21.6 +8.4 43 +23 +23 комфорт 1015.7 960.7
17 13.07 СВ 2
{5}
н/о н/о +20.8 +10.0 50 +23 +23 комфорт 1016.0 960.8
18 13.07 СВ 3
{11}
18 км 6/6 1320 м
[]
+21.3 +8.8 45 +23 +23 комфорт 1016.0 960.9 +24.3
19 13.07 СВ 2
{5}
н/о н/о +18.4 +10.4 60 +19 +19 1016.9 961.2
20 13.07 В 2
{2}
н/о н/о +17.9 +9.8 59 +19 +19 1017.6 961.7
21 13.07 В 2
{5}
н/о н/о +16.7 +10.2 65 +17 +17 1017.9 961.8
22 13.07 В 1
{4}
н/о н/о +16.8 +9.8 63 +18 +18 1017.8 961.7
23 13.07 В 1
{3}
н/о н/о +15.2 +10.1 72 +16 +16 1017.8 961.4
00 14.07 С 1
{5}
н/о н/о +13.7 +10.5 81 +15 +15 1017.7 961.0
01 14.07 В 1
{2}
н/о н/о +12.5 +9.9 84 +13 +13 1017.4 960.5
02 14.07 Ю 1
{2}
н/о н/о +10.3 +9.2 93 +11 +11 1017.6 960.2
03 14.07 штиль 0
{2}
н/о н/о +10.2 +8.5 89 +9 +9 1017.3 959.9
04 14.07 ЮЗ 2
{2}
н/о н/о +9.4 +8.3 93 +8 +8 1017.2 959.7
05 14.07 ЮЗ 1
{2}
н/о н/о +10.9 +9.3 90 +11 +11 1016.7 959.5
06 14.07 штиль 0
{2}
н/о н/о +14.1 +11.0 82 +14 +17 1015.8 959.3 +8.9
07 14.07 СВ 4
{6}
н/о н/о +17.4 +11.4 68 +17 +17 1015.1 959.3
08 14.07 СВ 4
{7}
н/о н/о +19.4 +11.5 60 +21 +21 комфорт 1014.6 959.2
09 14.07 СВ 5
{7}
н/о н/о +20.7 +11.0 54 +23 +23 комфорт 1014.1 959.0
10 14.07 СВ 6
{9}
н/о н/о +20.7 +10.3 51 +22 +22 комфорт 1013.7 958.6
11 14.07 СВ 6
{10}
н/о н/о +22.6 +10.0 45 +24 +24 комфорт 1013.1 958.4
12 14.07 СВ 5
{10}
н/о н/о +21.5 +8.8 44 +23 +23 комфорт 1012.7 957.8
13 14.07 СВ 5
{9}
н/о н/о +23.7 +7.8 36 +24 +24 комфорт 1011.6 957.2
14 14.07 СВ 4
{7}
н/о н/о +25.2 +7.1 31 +25 +25 комфорт 1010.8 956.7
15 14.07 С 7
{11}
н/о н/о +23.3 +10.7 45 +25 +25 комфорт 1011.1 956.6
16 14.07 С 8
{12}
н/о н/о +22.5 +11.2 49 +25 +25 комфорт 1011.3 956.7
17 14.07 С 8
{11}
н/о н/о +19.4 +10.9 58 +20 +20 1012.8 957.5
18 14.07 С 7
{12}
13 км дымка 4/4 1020 м
[]
+17.1 +10.8 66 +16 +16 1013.8 958.0 +25.2
19 14.07 СВ 6
{9}
н/о н/о +16.3 +10.8 70 +15 +15 1014.2 958.2
20 14.07 СВ 2
{6}
н/о н/о +15.3 +12.0 81 +15 +15 1015.8 959.5
21 14.07 В 2
{9}
н/о н/о +13.8 +12.3 91 +13 +13 1016.3 959.7 6
22 14.07 В 2
{8}
н/о н/о +13.7 +12.2 91 +13 +13 1015.9 959.3 4
23 14.07 СЗ 1
{4}
н/о н/о +13.3 +12.1 92 +13 +13 1015.8 959.1 3
00 15.07 ЮВ 1
{9}
н/о н/о +12.8 +12.1 96 +14 +14 1016.0 959.2 4
01 15.07 С 2
{2}
н/о н/о +13.1 +12.4 96 +13 +13 1015.1 958.4 2
02 15.07 СВ 2
{4}
н/о н/о +13.4 +12.5 94 +13 +13 1014.5 957.9
03 15.07 СВ 3
{4}
н/о н/о +13.5 +12.6 94 +12 +12 1014.2 957.7 0.1
04 15.07 СВ 2
{4}
н/о н/о +13.5 +12.6 94 +13 +13 1014.4 957.8 0.2
05 15.07 СВ 2
{4}
н/о н/о +13.6 +12.2 91 +13 +13 1014.4 957.9
06 15.07 СВ 3
{5}
7000 м осадки на расстоянии 10/10 420 м
[]
+13.9 +12.3 90 +13 +13 1014.6 958.1 +12.8
07 15.07 СВ 3
{6}
н/о н/о +14.8 +13.1 90 +14 +14 1014.8 958.5
08 15.07 СВ 5
{8}
н/о н/о +15.1 +12.7 86 +14 +14 1015.2 958.9
09 15.07 СВ 6
{12}
н/о н/о +15.7 +12.6 82 +14 +14 1015.3 959.1
10 15.07 СВ 7
{12}
н/о н/о +16.0 +12.2 78 +15 +15 1015.4 959.3
11 15.07 СВ 6
{10}
н/о н/о +17.5 +13.0 75 +17 +17 1015.3 959.5
12 15.07 СВ 6
{12}
12 км дымка 6/6 630 м
[]
+19.0 +12.6 66 +20 +23 1014.7 959.2
13 15.07 СВ 5
{10}
н/о н/о +19.9 +12.4 62 +21 +21 комфорт 1014.3 959.0
14 15.07 В 3
{9}
н/о н/о +20.3 +12.9 62 +23 +23 комфорт 1014.4 959.2
15 15.07 С 3
{10}
н/о н/о +20.3 +12.7 62 +23 +23 комфорт 1014.3 959.1
16 15.07 СВ 3
{7}
н/о н/о +19.7 +12.6 64 +22 +22 комфорт 1014.4 959.1
17 15.07 СВ 3
{7}
н/о н/о +21.1 +12.8 59 +23 +23 комфорт 1014.3 959.2
18 15.07 С 4
{10}
12 км осадки на расстоянии 5/5 1500 м
[]
+21.0 +12.9 60 +24 +24 комфорт 1014.6 959.5 +21.4
19 15.07 СВ 2
{6}
н/о н/о +18.4 +13.3 72 +20 +20 1015.4 959.8
20 15.07 В 1
{2}
н/о н/о +15.9 +12.7 81 +17 +17 1016.5 960.3
21 15.07 С 1
{6}
н/о н/о +14.0 +12.2 89 +15 +15 1017.4 960.8
22 15.07 Ю 1
{3}
н/о н/о +13.6 +12.3 92 +14 +14 1017.7 961.0
23 15.07 СЗ 1
{2}
н/о н/о +11.8 +11.2 96 +12 +12 1018.2 961.1
00 16.07 В 1
{6}
н/о н/о +12.1 +11.4 95 +12 +12 1018.0 961.0
01 16.07 З 1
{2}
н/о н/о +11.1 +10.0 93 +12 +12 1018.4 961.1
02 16.07 штиль 0
{1}
н/о н/о +10.4 +10.0 97 +10 +10 1018.6 961.2
03 16.07 штиль 0
{2}
н/о н/о +10.4 +10.0 97 +10 +10 1018.7 961.3
04 16.07 СЗ 1
{1}
н/о н/о +9.9 +9.5 97 +10 +10 1018.7 961.2
05 16.07 СВ 1
{1}
н/о н/о +10.8 +10.4 97 +11 +11 1018.7 961.4
06 16.07 штиль 0
{2}
1300 м дымка ясно +13.9 +12.7 92 +13 +17 1018.2 961.5 +9.8
07 16.07 СЗ 1
{1}
н/о н/о +16.2 +13.2 82 +18 +18 1017.8 961.6
08 16.07 С 3
{4}
н/о н/о +19.1 +13.0 68 +21 +21 комфорт 1017.1 961.5
09 16.07 С 3
{5}
н/о н/о +20.2 +13.0 63 +23 +23 комфорт 1016.7 961.3
10 16.07 СВ 2
{4}
н/о н/о +21.8 +12.7 56 +24 +24 комфорт 1016.1 961.1
11 16.07 С 2
{5}
н/о н/о +23.0 +11.3 48 +25 +25 комфорт 1015.8 961.0
12 16.07 С 3
{5}
15 км 1/1 1500 м
[]
+24.4 +10.0 40 +25 +40 комфорт 1014.9 960.4
13 16.07 С 2
{5}
н/о н/о +25.5 +11.9 43 +27 +27 жарко 1014.2 960.0
14 16.07 В 2
{5}
н/о н/о +25.3 +9.0 36 +26 +26 жарко 1014.1 959.8
15 16.07 ЮВ 1
{5}
н/о н/о +25.6 +8.2 33 +26 +26 жарко 1013.8 959.6
17 16.07 С 1
{4}
н/о н/о +25.7 +8.5 34 +26 +26 жарко 1013.2 959.1
18 16.07 СВ 3
{5}
15 км 1/0 2000 м
[]
+23.7 +11.9 48 +25 +26 комфорт 1013.7 959.2 +27.1
19 16.07 СВ 3
{5}
н/о н/о +21.4 +11.2 52 +23 +23 комфорт 1014.5 959.5
20 16.07 В 2
{3}
н/о н/о +19.3 +11.5 61 +21 +21 комфорт 1015.3 959.8
21 16.07 Ю 1
{5}
н/о н/о +15.4 +11.9 80 +17 +17 1016.2 959.9
22 16.07 ЮВ 1
{3}
н/о н/о +14.1 +11.1 82 +14 +14 1016.6 960.0
23 16.07 ЮВ 1
{2}
н/о н/о +12.1 +10.4 89 +12 +12 1017.0 960.0

 

Местоположение метеостанции Оберёш-Коппиген (Швейцария): широта 47.13 долгота 7.62 высота над уровнем моря 483 м.

В архиве по умолчанию представлена погода в Оберёш-Коппигене за последнюю неделю. Архивные данные за месяц целиком и за предыдущие месяцы, начиная с января 2011 года, Вы можете получить, выбрав интересующий диапазон дат из раскрывающегося списка и нажав кнопку "Ввод!".


*Определитесь, кто Вы:
робот инопланетянин человек

Внимание! Время в таблицах - всемирное. Для получения местного времени необходимо прибавить поправку, которая равна 1 ч.

Смотрите также архив погоды в соседних городах и на ближайших метеорологических станциях:

Погода в Гренхене (Швейцария) (16 км)
Погода в Винау (Швейцария) (18 км)
Погода в Лангнау-им-Эмментале (Швейцария) (26 км)
Погода в Берне (Швейцария) (27 км)
Погода в Лангенбруке (Швейцария) (27 км)
Погода на Напфе (Швейцария) (28 км)
Погода в Шомоне (Швейцария) (29 км)
Погода в Эгольцвиле (Швейцария) (29 км)
Погода в Мюлеберге (Швейцария) (31 км)
Погода в Делемоне (Швейцария) (35 км)

Пояснения к столбцам:

Ветер - указаны скорость ветра в м/с - средняя за 10 мин, порывы в срок и между сроками (в фигурных скобках) и направление, откуда дует ветер: С - северный, СВ - северо-восточный, В - восточный, ЮВ - юго-восточный, Ю - южный, ЮЗ - юго-западный, З - западный, СЗ - северо-западный.
Видимость - горизонтальная дальность видимости в метрах или километрах. При видимости от 1 до 10 км при отсутствии осадков обычно наблюдается дымка, при ухудшении видимости до 1 км и менее - туман. В сухую погоду видимость может ухудшаться дымом, пылью или мглою.
Явления - указаны атмосферные явления, наблюдавшиеся в срок или в последний час перед сроком; фигурными скобками обозначены явления, наблюдавшиеся между сроками (за 1-3 часа до срока); квадратными скобками обозначены град или гололедные отложения с указанием их диаметра в мм.
Облачность - указаны через наклонную черту общая и нижняя облачность в баллах и высота нижней границы облаков в метрах; квадратными скобками обозначены формы облаков: Ci - перистые, Cs - перисто-слоистые, Cc - перисто-кучевые, Ac - высококучевые, As - высокослоистые, Sc - слоисто-кучевые, Ns - слоисто-дождевые, Cu - кучевые, Cb - кучево-дождевые. Подробнее классификацию облаков см. в Атласе облаков (PDF).
T - Температура воздуха - температура, измеренная на высоте 2 м над землей.
Td - Температура точки росы - температура, при понижении до которой содержащийся в воздухе водяной пар достигнет насыщения.
f - Относительная влажность воздуха - влажноcть воздуха, измеренная на высоте 2 м над землей.
Te - Эффективная температура - температура, которую ощущает одетый по сезону человек в тени. Характеристика душности погоды. При расчете учитывается влияние влажности воздуха и скорости ветра на теплоощущения человека.
Tes - Эффективная температура на солнце - температура, которую ощущает человек, с поправкой на солнечный нагрев. Характеристика знойности погоды. Зависит от высоты солнца над горизонтом, облачности и скорости ветра. Ночью, в пасмурную погоду, а также при ветре 12 м/с и более поправка равна нулю.
P - Атмосферное давление - приведенное к уровню моря атмосферное давление.
Po - Атмосферное давление - измеренное на уровне метеостанции атмосферное давление.
Tmin - Минимальная температура - минимум температуры воздуха на высоте 2 м над землей.
Tmax - Максимальная температура - максимум температуры воздуха на высоте 2 м над землей.
R - Количество осадков - Количество выпавших осадков за период времени, мм. При наведении курсора мыши на число - период времени, за который выпало указанное количество осадков.
R24 - Количество осадков - Количество выпавших осадков за 24 часа, мм.
S - Снежный покров - Высота снежного покрова, см. При наведении курсора мыши на число - состояние снежного покрова и степень покрытия местности в баллах.